EW6895 Weather Reports


Display with metric or nautical units.
time (UTC)temp
F
wind
direction
speed
MPH
gust
MPH
rain 1hr
in
rain 24hr
in
rain mn
in
humidity
%
barometer
mb
20180721021552 92 159 4.0 7.0 0.00 0.00 0.00 43 1010.2
20180721021033 93 182 3.0 9.0 0.00 0.00 0.00 43 1010.2
20180721020529 93 192 4.0 9.0 0.00 0.00 0.00 43 1010.2
20180721020027 93 176 3.0 9.0 0.00 0.00 0.00 43 1010.2
20180721015603 93 174 4.0 9.0 0.00 0.00 0.00 43 1010.2
20180721015100 94 157 4.0 9.0 0.00 0.00 0.00 43 1010.1
20180721014557 94 149 4.0 9.0 0.00 0.00 0.00 43 1010.2
20180721014053 94 168 3.0 9.0 0.00 0.00 0.00 42 1010.1
20180721013534 95 186 3.0 7.0 0.00 0.00 0.00 41 1010.1
20180721013033 95 152 3.0 7.0 0.00 0.00 0.00 41 1010.1
20180721012528 96 162 3.0 7.0 0.00 0.00 0.00 40 1010.1
20180721012105 96 162 3.0 7.0 0.00 0.00 0.00 39 1010.1
20180721011601 97 163 3.0 6.0 0.00 0.00 0.00 39 1010.0
20180721011055 97 165 3.0 5.0 0.00 0.00 0.00 39 1009.9
20180721010552 97 181 3.0 5.0 0.00 0.00 0.00 38 1009.9
20180721010032 97 164 3.0 7.0 0.00 0.00 0.00 38 1009.9
20180721005528 98 176 3.0 5.0 0.00 0.00 0.00 39 1009.9
20180721005104 98 157 3.0 7.0 0.00 0.00 0.00 38 1009.9
20180721004600 98 169 3.0 8.0 0.00 0.00 0.00 38 1009.9
20180721004056 99 174 3.0 8.0 0.00 0.00 0.00 37 1009.8
20180721003552 99 169 3.0 5.0 0.00 0.00 0.00 38 1009.7
20180721003049 99 197 3.0 7.0 0.00 0.00 0.00 37 1009.7
20180721002530 99 155 4.0 8.0 0.00 0.00 0.00 37 1009.7
20180721002027 100 154 4.0 8.0 0.00 0.00 0.00 37 1009.8
20180721001604 100 155 4.0 8.0 0.00 0.00 0.00 37 1009.7
20180721001050 100 186 5.0 8.0 0.00 0.00 0.00 36 1009.7
20180721000547 101 147 5.0 8.0 0.00 0.00 0.00 35 1009.7
20180721000045 101 156 3.0 9.0 0.00 0.00 0.00 35 1009.7
20180720235541 102 172 4.0 10.0 0.00 0.00 0.00 34 1009.7
20180720235022 102 154 5.0 8.0 0.00 0.00 0.00 33 1009.6
20180720234559 103 137 3.0 8.0 0.00 0.00 0.00 32 1009.6
20180720234056 103 182 4.0 8.0 0.00 0.00 0.00 31 1009.6
20180720233553 103 192 4.0 8.0 0.00 0.00 0.00 31 1009.6
20180720233049 104 151 4.0 8.0 0.00 0.00 0.00 30 1009.6
20180720232545 104 192 4.0 7.0 0.00 0.00 0.00 29 1009.6
20180720232042 104 170 5.0 8.0 0.00 0.00 0.00 29 1009.6
20180720231523 104 159 5.0 12.0 0.00 0.00 0.00 29 1009.7
20180720231019 104 163 4.0 8.0 0.00 0.00 0.00 30 1009.7
20180720230515 104 176 4.0 8.0 0.00 0.00 0.00 29 1009.8
20180720230012 104 164 4.0 8.0 0.00 0.00 0.00 28 1009.7
20180720225559 104 180 3.0 6.0 0.00 0.00 0.00 28 1009.7
20180720225056 105 171 3.0 7.0 0.00 0.00 0.00 27 1009.8
20180720224552 105 180 3.0 7.0 0.00 0.00 0.00 28 1009.8
20180720224032 105 184 4.0 9.0 0.00 0.00 0.00 27 1009.8
20180720223609 105 187 5.0 9.0 0.00 0.00 0.00 28 1009.8
20180720223048 105 160 5.0 9.0 0.00 0.00 0.00 29 1009.8
20180720222543 105 161 2.0 6.0 0.00 0.00 0.00 29 1009.8
20180720222040 105 188 3.0 9.0 0.00 0.00 0.00 29 1009.9
20180720221537 105 193 5.0 10.0 0.00 0.00 0.00 29 1009.8
20180720221033 105 194 4.0 10.0 0.00 0.00 0.00 28 1009.8
20180720220513 105 166 4.0 7.0 0.00 0.00 0.00 28 1009.8
20180720220050 105 197 5.0 11.0 0.00 0.00 0.00 27 1009.8
20180720215546 105 200 6.0 11.0 0.00 0.00 0.00 27 1009.8
20180720215043 105 182 3.0 10.0 0.00 0.00 0.00 27 1009.8
20180720214540 105 190 6.0 9.0 0.00 0.00 0.00 28 1009.8
20180720214036 105 159 6.0 11.0 0.00 0.00 0.00 28 1009.9
20180720213529 105 188 5.0 9.0 0.00 0.00 0.00 28 1009.9
20180720213048 105 181 6.0 9.0 0.00 0.00 0.00 27 1009.8
20180720212527 106 198 3.0 13.0 0.00 0.00 0.00 28 1009.9
20180720212104 106 176 4.0 13.0 0.00 0.00 0.00 29 1009.9
20180720211600 106 217 4.0 8.0 0.00 0.00 0.00 29 1009.9
20180720211057 106 189 4.0 8.0 0.00 0.00 0.00 29 1010.0
20180720210553 106 196 3.0 9.0 0.00 0.00 0.00 30 1010.1
20180720210050 106 176 4.0 10.0 0.00 0.00 0.00 30 1010.1
20180720205546 106 161 6.0 10.0 0.00 0.00 0.00 28 1010.2
20180720205026 106 182 4.0 8.0 0.00 0.00 0.00 29 1010.1
20180720204603 106 192 4.0 10.0 0.00 0.00 0.00 29 1010.2
20180720204058 106 216 4.0 10.0 0.00 0.00 0.00 29 1010.3
20180720203555 106 180 5.0 10.0 0.00 0.00 0.00 28 1010.3
20180720203049 106 219 6.0 9.0 0.00 0.00 0.00 28 1010.3
20180720202546 106 178 6.0 9.0 0.00 0.00 0.00 29 1010.2
20180720202042 106 210 4.0 7.0 0.00 0.00 0.00 30 1010.3
20180720201522 105 273 4.0 12.0 0.00 0.00 0.00 30 1010.4
20180720201059 105 227 4.0 12.0 0.00 0.00 0.00 30 1010.5
20180720200555 105 241 3.0 9.0 0.00 0.00 0.00 32 1010.5
20180720200053 104 176 4.0 11.0 0.00 0.00 0.00 32 1010.5
20180720195548 104 204 3.0 11.0 0.00 0.00 0.00 31 1010.6
20180720195045 104 194 5.0 10.0 0.00 0.00 0.00 32 1010.6
20180720194542 104 202 3.0 9.0 0.00 0.00 0.00 33 1010.7
20180720194023 104 203 5.0 11.0 0.00 0.00 0.00 33 1010.8
20180720193600 104 191 6.0 11.0 0.00 0.00 0.00 33 1010.8
20180720193057 104 205 5.0 10.0 0.00 0.00 0.00 33 1010.8
20180720192552 103 221 5.0 9.0 0.00 0.00 0.00 33 1010.9
20180720192048 103 182 3.0 7.0 0.00 0.00 0.00 35 1011.0
20180720191545 102 165 4.0 9.0 0.00 0.00 0.00 34 1011.0
20180720191041 102 225 4.0 8.0 0.00 0.00 0.00 35 1011.0
20180720190518 102 171 3.0 8.0 0.00 0.00 0.00 35 1011.0
20180720190054 101 204 5.0 11.0 0.00 0.00 0.00 35 1011.1
20180720185550 101 210 6.0 11.0 0.00 0.00 0.00 35 1011.2
20180720185047 102 204 4.0 10.0 0.00 0.00 0.00 34 1011.1
20180720184543 102 229 4.0 11.0 0.00 0.00 0.00 34 1011.3
20180720184040 102 241 6.0 11.0 0.00 0.00 0.00 35 1011.3
20180720183536 102 186 3.0 9.0 0.00 0.00 0.00 36 1011.3
20180720183019 102 246 6.0 9.0 0.00 0.00 0.00 35 1011.3
20180720182554 102 173 3.0 9.0 0.00 0.00 0.00 37 1011.3
20180720182051 101 206 4.0 11.0 0.00 0.00 0.00 37 1011.4
20180720181548 101 215 5.0 12.0 0.00 0.00 0.00 37 1011.4
20180720181045 100 205 5.0 12.0 0.00 0.00 0.00 38 1011.5
20180720180542 100 215 6.0 12.0 0.00 0.00 0.00 38 1011.4
20180720180038 100 219 4.0 11.0 0.00 0.00 0.00 38 1011.5
20180720175519 100 223 6.0 14.0 0.00 0.00 0.00 38 1011.6
20180720175055 99 191 2.0 14.0 0.00 0.00 0.00 40 1011.6
20180720174552 99 221 5.0 12.0 0.00 0.00 0.00 39 1011.7
20180720174048 99 205 4.0 9.0 0.00 0.00 0.00 40 1011.7
20180720173545 99 248 3.0 11.0 0.00 0.00 0.00 40 1011.8
20180720173042 98 211 5.0 11.0 0.00 0.00 0.00 40 1011.8
20180720172538 98 234 4.0 11.0 0.00 0.00 0.00 41 1011.8
20180720172019 98 228 5.0 9.0 0.00 0.00 0.00 42 1011.9
20180720171556 98 217 4.0 9.0 0.00 0.00 0.00 43 1012.0
20180720171053 97 201 4.0 8.0 0.00 0.00 0.00 44 1011.9
20180720170549 97 285 3.0 8.0 0.00 0.00 0.00 44 1012.1
20180720170028 97 191 4.0 8.0 0.00 0.00 0.00 45 1012.0
20180720165603 97 259 4.0 8.0 0.00 0.00 0.00 44 1012.2
20180720165059 97 194 5.0 7.0 0.00 0.00 0.00 45 1012.2
20180720164540 96 217 4.0 8.0 0.00 0.00 0.00 45 1012.2
20180720164037 96 210 4.0 9.0 0.00 0.00 0.00 46 1012.3
20180720163533 96 177 4.0 9.0 0.00 0.00 0.00 47 1012.3
20180720163029 96 200 5.0 9.0 0.00 0.00 0.00 46 1012.3
20180720162603 96 222 4.0 12.0 0.00 0.00 0.00 46 1012.3
20180720162100 95 212 3.0 12.0 0.00 0.00 0.00 46 1012.3
20180720161557 95 224 5.0 9.0 0.00 0.00 0.00 46 1012.2
20180720161038 95 282 3.0 9.0 0.00 0.00 0.00 48 1012.1
20180720160534 94 211 5.0 9.0 0.00 0.00 0.00 51 1012.1
20180720160031 93 228 5.0 10.0 0.00 0.00 0.00 52 1012.1
20180720155528 93 236 5.0 9.0 0.00 0.00 0.00 51 1012.1
20180720155104 93 209 4.0 8.0 0.00 0.00 0.00 53 1012.1
20180720154600 92 177 3.0 6.0 0.00 0.00 0.00 55 1012.1
20180720154057 92 203 3.0 9.0 0.00 0.00 0.00 57 1012.1
20180720153538 92 199 3.0 7.0 0.00 0.00 0.00 58 1012.0
20180720153036 91 202 4.0 7.0 0.00 0.00 0.00 59 1012.0
20180720152532 90 215 4.0 10.0 0.00 0.00 0.00 59 1012.2
20180720152029 90 209 5.0 10.0 0.00 0.00 0.00 58 1012.2
20180720151525 90 180 2.0 7.0 0.00 0.00 0.00 61 1012.2
20180720151102 89 194 4.0 9.0 0.00 0.00 0.00 62 1012.2
20180720150558 89 238 4.0 9.0 0.00 0.00 0.00 62 1012.1
20180720150039 88 212 5.0 8.0 0.00 0.00 0.00 63 1012.2
20180720145535 88 201 4.0 9.0 0.00 0.00 0.00 64 1012.2
20180720145031 88 179 4.0 9.0 0.00 0.00 0.00 65 1012.2
20180720144528 87 221 4.0 9.0 0.00 0.00 0.00 66 1012.3
20180720144025 87 244 5.0 9.0 0.00 0.00 0.00 65 1012.3
20180720143602 87 221 4.0 9.0 0.00 0.00 0.00 66 1012.4
20180720143058 86 193 5.0 10.0 0.00 0.00 0.00 67 1012.4
20180720142538 86 242 5.0 10.0 0.00 0.00 0.00 67 1012.4
20180720142035 86 217 3.0 9.0 0.00 0.00 0.00 68 1012.5
20180720141531 86 224 4.0 9.0 0.00 0.00 0.00 68 1012.5
20180720141104 85 218 5.0 10.0 0.00 0.00 0.00 69 1012.4
20180720140600 85 213 5.0 9.0 0.00 0.00 0.00 69 1012.5
20180720140054 85 209 3.0 9.0 0.00 0.00 0.00 70 1012.5
20180720135543 84 192 4.0 9.0 0.00 0.00 0.00 71 1012.4
20180720135024 84 261 5.0 10.0 0.00 0.00 0.00 71 1012.5
20180720134601 84 213 3.0 8.0 0.00 0.00 0.00 72 1012.5
20180720134056 83 227 5.0 8.0 0.00 0.00 0.00 72 1012.4
20180720133553 83 184 3.0 8.0 0.00 0.00 0.00 73 1012.4
20180720133050 82 229 4.0 8.0 0.00 0.00 0.00 73 1012.2
20180720132547 82 243 3.0 7.0 0.00 0.00 0.00 74 1012.1
20180720132044 82 193 3.0 6.0 0.00 0.00 0.00 74 1012.0
20180720131525 81 211 3.0 6.0 0.00 0.00 0.00 74 1011.9
20180720131102 81 202 3.0 10.0 0.00 0.00 0.00 74 1011.8
20180720130559 81 207 4.0 10.0 0.00 0.00 0.00 75 1011.8
20180720130056 81 209 4.0 9.0 0.00 0.00 0.00 75 1011.7
20180720125552 81 217 4.0 7.0 0.00 0.00 0.00 75 1011.8
20180720125048 80 222 4.0 7.0 0.00 0.00 0.00 75 1011.8
20180720124545 80 221 3.0 5.0 0.00 0.00 0.00 75 1011.8
20180720124025 80 184 4.0 6.0 0.00 0.00 0.00 75 1011.7
20180720123603 80 190 3.0 6.0 0.00 0.00 0.00 75 1011.6
20180720123057 80 187 3.0 5.0 0.00 0.00 0.00 75 1011.6
20180720122553 80 197 2.0 4.0 0.00 0.00 0.00 75 1011.7
20180720122049 80 200 3.0 5.0 0.00 0.00 0.00 74 1011.6
20180720121541 80 194 3.0 5.0 0.00 0.00 0.00 74 1011.5
20180720121037 80 191 3.0 6.0 0.00 0.00 0.00 74 1011.4
20180720120516 80 191 3.0 5.0 0.00 0.00 0.00 74 1011.4
20180720120059 80 196 3.0 5.0 0.00 0.00 0.00 74 1011.4
20180720115545 80 205 2.0 4.0 0.00 0.00 0.00 73 1011.4
20180720115042 80 184 3.0 5.0 0.00 0.00 0.00 73 1011.3
20180720114539 80 163 3.0 5.0 0.00 0.00 0.00 73 1011.3
20180720114036 80 206 2.0 5.0 0.00 0.00 0.00 73 1011.3
20180720113532 80 194 3.0 6.0 0.00 0.00 0.00 72 1011.3
20180720113014 80 201 3.0 4.0 0.00 0.00 0.00 72 1011.4
20180720112550 80 188 2.0 3.0 0.00 0.00 0.00 72 1011.3
20180720112047 80 189 1.0 3.0 0.00 0.00 0.00 71 1011.2
20180720111542 80 189 1.0 3.0 0.00 0.00 0.00 71 1011.2
20180720111039 80 188 1.0 4.0 0.00 0.00 0.00 70 1011.0
20180720110535 80 186 1.0 5.0 0.00 0.00 0.00 70 1010.9
20180720110029 81 186 1.0 5.0 0.00 0.00 0.00 70 1010.8
20180720105605 81 188 3.0 5.0 0.00 0.00 0.00 69 1010.7
20180720105046 81 184 3.0 6.0 0.00 0.00 0.00 69 1010.8
20180720104543 81 189 3.0 6.0 0.00 0.00 0.00 69 1010.8
20180720104040 81 221 2.0 6.0 0.00 0.00 0.00 68 1010.7
20180720103537 81 180 3.0 6.0 0.00 0.00 0.00 68 1010.7
20180720103033 81 169 4.0 6.0 0.00 0.00 0.00 68 1010.5
20180720102530 81 184 3.0 5.0 0.00 0.00 0.00 68 1010.5
20180720102105 81 178 2.0 5.0 0.00 0.00 0.00 67 1010.5
20180720101546 81 183 2.0 5.0 0.00 0.00 0.00 67 1010.6
20180720101043 82 184 1.0 3.0 0.00 0.00 0.00 66 1010.5
20180720100540 82 190 0.0 3.0 0.00 0.00 0.00 66 1010.5
20180720100037 82 188 0.0 3.0 0.00 0.00 0.00 66 1010.4
20180720095531 82 187 1.0 5.0 0.00 0.00 0.00 65 1010.2
20180720095027 82 201 2.0 6.0 0.00 0.00 0.00 65 1010.1
20180720094604 82 180 3.0 6.0 0.00 0.00 0.00 64 1010.1
20180720094043 83 183 4.0 6.0 0.00 0.00 0.00 64 1010.1
20180720093540 83 169 3.0 5.0 0.00 0.00 0.00 63 1010.1
20180720093037 83 174 2.0 6.0 0.00 0.00 0.00 63 1010.1
20180720092533 83 194 4.0 6.0 0.00 0.00 0.00 63 1010.0
20180720092030 83 188 3.0 6.0 0.00 0.00 0.00 62 1010.0
20180720091526 83 186 3.0 6.0 0.00 0.00 0.00 62 1009.9
20180720091102 83 179 3.0 5.0 0.00 0.00 0.00 62 1010.0
20180720090543 84 195 2.0 3.0 0.00 0.00 0.00 61 1010.0
20180720090041 84 239 2.0 4.0 0.00 0.00 0.00 61 1010.0
20180720085537 84 162 2.0 3.0 0.00 0.00 0.00 61 1009.9
20180720085034 84 190 2.0 4.0 0.00 0.00 0.00 60 1009.8
20180720084531 84 189 2.0 5.0 0.00 0.00 0.00 60 1009.8
20180720084028 84 205 2.0 5.0 0.00 0.00 0.00 59 1009.8
20180720083605 85 236 2.0 5.0 0.00 0.00 0.00 59 1009.7
20180720083044 85 204 3.0 5.0 0.00 0.00 0.00 59 1009.8
20180720082540 85 192 2.0 6.0 0.00 0.00 0.00 59 1009.8
20180720082038 85 183 3.0 6.0 0.00 0.00 0.00 58 1009.8
20180720081533 85 180 2.0 5.0 0.00 0.00 0.00 58 1009.7
20180720081030 85 189 2.0 4.0 0.00 0.00 0.00 58 1009.6
20180720080526 85 196 2.0 6.0 0.00 0.00 0.00 57 1009.7
20180720080102 85 198 3.0 6.0 0.00 0.00 0.00 57 1009.6
20180720075541 86 218 2.0 5.0 0.00 0.00 0.00 56 1009.7
20180720075037 86 178 3.0 5.0 0.00 0.00 0.00 56 1009.7
20180720074534 86 201 2.0 6.0 0.00 0.00 0.00 55 1009.6
20180720074031 86 247 3.0 6.0 0.00 0.00 0.00 55 1009.7
20180720073528 86 214 2.0 4.0 0.00 0.00 0.00 55 1009.6
20180720073025 86 211 2.0 4.0 0.00 0.00 0.00 54 1009.6
20180720072601 87 205 3.0 6.0 0.00 0.00 0.00 53 1009.7
20180720072042 87 206 3.0 6.0 0.00 0.00 0.00 53 1009.7
20180720071538 87 201 2.0 6.0 0.00 0.00 0.00 53 1009.8
20180720071035 87 220 3.0 8.0 0.00 0.00 0.00 52 1009.8
20180720070531 87 206 4.0 8.0 0.00 0.00 0.00 51 1009.7
20180720070029 87 184 4.0 7.0 0.00 0.00 0.00 51 1009.7
20180720065525 87 220 3.0 11.0 0.00 0.00 0.00 50 1009.7
20180720065025 88 178 4.0 11.0 0.00 0.00 0.00 50 1009.7
20180720064521 88 195 4.0 8.0 0.00 0.00 0.00 49 1009.7
20180720064018 88 203 4.0 8.0 0.00 0.00 0.00 49 1009.7
20180720063515 88 181 4.0 9.0 0.00 0.00 0.00 48 1009.7
20180720063031 88 217 4.0 9.0 0.00 0.00 0.00 48 1009.6
20180720062527 89 188 4.0 8.0 0.00 0.00 0.00 47 1009.7
20180720062023 89 201 4.0 9.0 0.00 0.00 0.00 47 1009.7
20180720061524 89 171 5.0 9.0 0.00 0.00 0.00 47 1009.7
20180720061020 89 205 5.0 9.0 0.00 0.00 0.00 46 1009.6
20180720060516 89 196 4.0 8.0 0.00 0.00 0.00 46 1009.6
20180720060012 89 190 4.0 8.0 0.00 0.00 0.00 46 1009.7
20180720055529 90 210 4.0 10.0 0.00 0.00 0.00 46 1009.7
20180720055026 90 227 5.0 10.0 0.00 0.00 0.00 46 1009.6
20180720054522 90 161 4.0 9.0 0.00 0.00 0.00 46 1009.6
20180720054023 90 174 4.0 8.0 0.00 0.00 0.00 45 1009.6
20180720053519 90 180 4.0 9.0 0.00 0.00 0.00 45 1009.6
20180720053018 90 226 5.0 9.0 0.00 0.00 0.00 45 1009.6
20180720052512 90 209 4.0 8.0 0.00 0.00 0.00 45 1009.6
20180720052029 90 184 3.0 9.0 0.00 0.00 0.00 44 1009.6
20180720051525 90 201 4.0 9.0 0.00 0.00 0.00 44 1009.5
20180720051022 91 190 5.0 8.0 0.00 0.00 0.00 43 1009.6
20180720050522 91 193 4.0 9.0 0.00 0.00 0.00 43 1009.6
20180720050019 91 227 4.0 9.0 0.00 0.00 0.00 43 1009.5
20180720045533 91 163 5.0 9.0 0.00 0.00 0.00 43 1009.5
20180720045030 91 221 5.0 11.0 0.00 0.00 0.00 43 1009.5
20180720044526 91 225 6.0 11.0 0.00 0.00 0.00 43 1009.6
20180720044102 91 218 4.0 10.0 0.00 0.00 0.00 43 1009.6
20180720043559 91 214 5.0 10.0 0.00 0.00 0.00 43 1009.6
20180720043055 91 212 5.0 10.0 0.00 0.00 0.00 43 1009.6
20180720042536 92 196 5.0 10.0 0.00 0.00 0.00 42 1009.6
20180720042032 92 182 6.0 11.0 0.00 0.00 0.00 42 1009.6
20180720041526 92 165 5.0 9.0 0.00 0.00 0.00 42 1009.7
20180720041102 92 169 4.0 10.0 0.00 0.00 0.00 41 1009.7
20180720040559 92 190 5.0 10.0 0.00 0.00 0.00 41 1009.7
20180720040056 92 184 6.0 12.0 0.00 0.00 0.00 41 1009.6
20180720035552 92 178 6.0 12.0 0.00 0.00 0.00 41 1009.7
20180720035030 92 179 5.0 7.0 0.00 0.00 0.00 42 1009.6
20180720034527 92 176 6.0 9.0 0.00 0.00 0.00 42 1009.7
20180720034103 92 201 5.0 9.0 0.00 0.00 0.00 43 1009.7
20180720033600 92 194 5.0 9.0 0.00 0.00 0.00 43 1009.6
20180720033058 92 158 5.0 8.0 0.00 0.00 0.00 43 1009.6
20180720032554 92 180 5.0 9.0 0.00 0.00 0.00 43 1009.7
20180720032051 93 188 4.0 9.0 0.00 0.00 0.00 43 1009.6
20180720031531 93 196 5.0 10.0 0.00 0.00 0.00 43 1009.6
20180720031027 93 201 4.0 10.0 0.00 0.00 0.00 44 1009.6
20180720030524 93 151 5.0 10.0 0.00 0.00 0.00 44 1009.5
20180720030101 93 171 5.0 10.0 0.00 0.00 0.00 44 1009.4
20180720025556 93 168 6.0 10.0 0.00 0.00 0.00 45 1009.3
20180720025050 93 192 4.0 11.0 0.00 0.00 0.00 45 1009.1
20180720024546 93 189 5.0 11.0 0.00 0.00 0.00 45 1009.0
20180720024026 93 167 5.0 8.0 0.00 0.00 0.00 45 1008.9
20180720023603 93 167 5.0 8.0 0.00 0.00 0.00 45 1008.9
20180720023059 94 161 3.0 7.0 0.00 0.00 0.00 44 1008.8
20180720022555 94 148 4.0 7.0 0.00 0.00 0.00 44 1008.6
20180720022052 94 179 4.0 7.0 0.00 0.00 0.00 44 1008.6